Time,TemperatureF,DewpointF,PressureIn,WindDirection,WindDirectionDegrees,WindSpeedMPH,WindSpeedGustMPH,Humidity,HourlyPrecipIn,Conditions,Clouds,dailyrainin,SoftwareType,DateUTC
2013-07-22 00:03:00,68.7,32.5,29.71,South,180,0.0,0.0,26,0.00,,---,0.00,VWS V14.01,2013-07-22 07:03:00,
2013-07-22 00:08:00,68.4,32.2,29.71,SW,225,2.0,2.0,26,0.00,,---,0.00,VWS V14.01,2013-07-22 07:08:00,
2013-07-22 00:13:00,68.0,32.8,29.71,SW,225,2.5,2.5,27,0.00,,---,0.00,VWS V14.01,2013-07-22 07:13:00,
2013-07-22 00:18:00,67.6,34.3,29.71,SSW,202,0.0,0.0,29,0.00,,---,0.00,VWS V14.01,2013-07-22 07:18:00,
2013-07-22 00:24:00,67.1,34.7,29.71,WSW,248,1.1,1.1,30,0.00,,---,0.00,VWS V14.01,2013-07-22 07:24:00,
2013-07-22 00:29:00,66.6,35.0,29.71,West,270,0.0,0.0,31,0.00,,---,0.00,VWS V14.01,2013-07-22 07:29:00,
2013-07-22 00:34:00,66.4,35.7,29.74,WSW,248,0.0,0.0,32,0.00,,---,0.00,VWS V14.01,2013-07-22 07:34:00,
2013-07-22 00:39:00,66.2,35.5,29.74,South,180,0.0,0.0,32,0.00,,---,0.00,VWS V14.01,2013-07-22 07:39:00,
2013-07-22 00:44:00,65.7,35.8,29.74,SSW,202,0.0,0.0,33,0.00,,---,0.00,VWS V14.01,2013-07-22 07:44:00,
2013-07-22 00:49:00,65.5,36.4,29.71,SSW,202,0.0,0.0,34,0.00,,---,0.00,VWS V14.01,2013-07-22 07:49:00,
2013-07-22 00:54:00,65.1,36.1,29.71,SSW,202,0.0,0.0,34,0.00,,---,0.00,VWS V14.01,2013-07-22 07:54:00,
2013-07-22 00:59:00,64.8,35.8,29.71,SSW,202,2.0,2.0,34,0.00,,---,0.00,VWS V14.01,2013-07-22 07:59:00,
2013-07-22 01:04:00,64.4,35.5,29.74,SSW,202,0.0,0.0,34,0.00,,---,0.00,VWS V14.01,2013-07-22 08:04:00,
2013-07-22 01:09:00,64.0,35.9,29.74,SSW,202,0.0,0.0,35,0.00,,---,0.00,VWS V14.01,2013-07-22 08:09:00,
2013-07-22 01:14:00,64.0,35.9,29.74,SSW,202,1.3,1.3,35,0.00,,---,0.00,VWS V14.01,2013-07-22 08:14:00,
2013-07-22 01:19:00,63.5,35.4,29.74,SSW,202,0.0,0.0,35,0.00,,---,0.00,VWS V14.01,2013-07-22 08:19:00,
2013-07-22 01:24:00,63.7,35.5,29.74,SSW,202,2.2,2.2,35,0.00,,---,0.00,VWS V14.01,2013-07-22 08:24:00,
2013-07-22 01:29:00,63.3,35.2,29.74,SSW,202,0.0,0.0,35,0.00,,---,0.00,VWS V14.01,2013-07-22 08:29:00,
2013-07-22 01:34:00,63.3,35.2,29.74,SSW,202,1.6,1.6,35,0.00,,---,0.00,VWS V14.01,2013-07-22 08:34:00,
2013-07-22 01:39:00,63.0,34.9,29.74,SSW,202,0.0,0.0,35,0.00,,---,0.00,VWS V14.01,2013-07-22 08:39:00,
2013-07-22 01:44:00,62.6,34.6,29.74,SSW,202,1.3,1.3,35,0.00,,---,0.00,VWS V14.01,2013-07-22 08:44:00,
2013-07-22 01:49:00,62.2,35.0,29.74,SSW,202,0.0,0.0,36,0.00,,---,0.00,VWS V14.01,2013-07-22 08:49:00,
2013-07-22 01:54:00,62.1,34.8,29.74,SSW,202,1.3,1.3,36,0.00,,---,0.00,VWS V14.01,2013-07-22 08:54:00,
2013-07-22 01:59:00,62.1,34.8,29.74,SSW,202,0.0,0.0,36,0.00,,---,0.00,VWS V14.01,2013-07-22 08:59:00,
2013-07-22 02:04:00,61.9,34.7,29.74,SSW,202,0.0,0.0,36,0.00,,---,0.00,VWS V14.01,2013-07-22 09:04:00,
2013-07-22 02:09:00,61.9,34.7,29.74,SW,225,0.0,0.0,36,0.00,,---,0.00,VWS V14.01,2013-07-22 09:09:00,
2013-07-22 02:14:00,61.7,35.2,29.74,SW,225,0.0,0.0,37,0.00,,---,0.00,VWS V14.01,2013-07-22 09:14:00,
2013-07-22 02:19:00,61.5,35.0,29.74,SW,225,0.0,0.0,37,0.00,,---,0.00,VWS V14.01,2013-07-22 09:19:00,
2013-07-22 02:24:00,61.5,35.0,29.74,WSW,248,0.9,0.9,37,0.00,,---,0.00,VWS V14.01,2013-07-22 09:24:00,
2013-07-22 02:29:00,61.5,36.3,29.74,SSW,202,0.0,0.0,39,0.00,,---,0.00,VWS V14.01,2013-07-22 09:29:00,
2013-07-22 02:34:00,61.3,35.5,29.74,SSW,202,0.0,0.0,38,0.00,,---,0.00,VWS V14.01,2013-07-22 09:34:00,
2013-07-22 02:39:00,61.7,36.5,29.74,NE,45,2.9,2.9,39,0.00,,---,0.00,VWS V14.01,2013-07-22 09:39:00,
2013-07-22 02:44:00,61.9,37.3,29.74,NNE,22,1.3,1.3,40,0.00,,---,0.00,VWS V14.01,2013-07-22 09:44:00,
2013-07-22 02:49:00,62.2,37.6,29.74,West,270,0.0,0.0,40,0.00,,---,0.00,VWS V14.01,2013-07-22 09:49:00,
2013-07-22 02:54:00,61.9,37.3,29.74,NNW,338,0.0,0.0,40,0.00,,---,0.00,VWS V14.01,2013-07-22 09:54:00,
2013-07-22 02:59:00,62.1,38.1,29.76,SW,225,2.0,2.0,41,0.00,,---,0.00,VWS V14.01,2013-07-22 09:59:00,
2013-07-22 03:04:00,62.6,39.8,29.76,SW,225,0.0,0.0,43,0.00,,---,0.00,VWS V14.01,2013-07-22 10:04:00,
2013-07-22 03:09:00,62.4,39.0,29.76,SW,225,2.2,2.2,42,0.00,,---,0.00,VWS V14.01,2013-07-22 10:09:00,
2013-07-22 03:14:00,62.1,39.9,29.76,SW,225,0.0,0.0,44,0.00,,---,0.00,VWS V14.01,2013-07-22 10:14:00,
2013-07-22 03:19:00,61.5,38.8,29.76,SW,225,0.0,0.0,43,0.00,,---,0.00,VWS V14.01,2013-07-22 10:19:00,
2013-07-22 03:24:00,61.0,38.9,29.76,South,180,0.0,0.0,44,0.00,,---,0.00,VWS V14.01,2013-07-22 10:24:00,
2013-07-22 03:29:00,60.6,38.0,29.76,South,180,0.9,0.9,43,0.00,,---,0.00,VWS V14.01,2013-07-22 10:29:00,
2013-07-22 03:34:00,60.4,38.4,29.76,SW,225,0.0,0.0,44,0.00,,---,0.00,VWS V14.01,2013-07-22 10:34:00,
2013-07-22 03:39:00,60.4,38.4,29.76,SSE,158,0.0,0.0,44,0.00,,---,0.00,VWS V14.01,2013-07-22 10:39:00,
2013-07-22 03:44:00,60.6,39.2,29.76,ESE,112,2.5,2.5,45,0.00,,---,0.00,VWS V14.01,2013-07-22 10:44:00,
2013-07-22 03:49:00,61.2,39.1,29.76,East,90,2.0,2.0,44,0.00,,---,0.00,VWS V14.01,2013-07-22 10:49:00,
2013-07-22 03:54:00,61.7,39.0,29.76,East,90,1.6,1.6,43,0.00,,---,0.00,VWS V14.01,2013-07-22 10:54:00,
2013-07-22 03:59:00,62.4,39.0,29.76,East,90,1.3,1.3,42,0.00,,---,0.00,VWS V14.01,2013-07-22 10:59:00,
2013-07-22 04:04:00,62.8,39.4,29.76,NNW,338,1.3,1.3,42,0.00,,---,0.00,VWS V14.01,2013-07-22 11:04:00,
2013-07-22 04:09:00,63.5,39.4,29.76,NNE,22,2.5,2.5,41,0.00,,---,0.00,VWS V14.01,2013-07-22 11:09:00,
2013-07-22 04:14:00,63.5,39.4,29.74,ESE,112,2.2,2.2,41,0.00,,---,0.00,VWS V14.01,2013-07-22 11:14:00,
2013-07-22 04:19:00,64.6,39.1,29.74,SSE,158,1.6,1.6,39,0.00,,---,0.00,VWS V14.01,2013-07-22 11:19:00,
2013-07-22 04:24:00,64.2,38.8,29.74,NE,45,0.0,0.0,39,0.00,,---,0.00,VWS V14.01,2013-07-22 11:24:00,
2013-07-22 04:29:00,64.0,38.6,29.79,SE,135,1.6,1.6,39,0.00,,---,0.00,VWS V14.01,2013-07-22 11:29:00,
2013-07-22 04:34:00,64.4,38.3,29.79,East,90,2.9,2.9,38,0.00,,---,0.00,VWS V14.01,2013-07-22 11:34:00,
2013-07-22 04:39:00,64.9,38.1,29.79,East,90,0.0,0.0,37,0.00,,---,0.00,VWS V14.01,2013-07-22 11:39:00,
2013-07-22 04:45:00,64.8,37.9,29.79,SE,135,0.9,0.9,37,0.00,,---,0.00,VWS V14.01,2013-07-22 11:45:00,
2013-07-22 04:50:00,64.6,37.8,29.79,North,0,0.9,0.9,37,0.00,,---,0.00,VWS V14.01,2013-07-22 11:50:00,
2013-07-22 04:55:00,64.2,37.4,29.79,WNW,292,1.3,1.3,37,0.00,,---,0.00,VWS V14.01,2013-07-22 11:55:00,
2013-07-22 05:00:00,64.2,37.4,29.76,SSW,202,2.5,2.5,37,0.00,,---,0.00,VWS V14.01,2013-07-22 12:00:00,
2013-07-22 05:05:00,64.4,36.9,29.76,ENE,68,0.0,0.0,36,0.00,,---,0.00,VWS V14.01,2013-07-22 12:05:00,
2013-07-22 05:10:00,64.2,37.4,29.76,North,0,1.1,1.1,37,0.00,,---,0.00,VWS V14.01,2013-07-22 12:10:00,
2013-07-22 05:15:00,64.2,37.4,29.79,NNE,22,4.7,4.7,37,0.00,,---,0.00,VWS V14.01,2013-07-22 12:15:00,
2013-07-22 05:20:00,64.4,37.6,29.79,NW,315,1.1,1.1,37,0.00,,---,0.00,VWS V14.01,2013-07-22 12:20:00,
2013-07-22 05:25:00,64.8,37.9,29.79,NW,315,0.9,0.9,37,0.00,,---,0.00,VWS V14.01,2013-07-22 12:25:00,
2013-07-22 05:30:00,65.7,38.7,29.82,West,270,1.6,1.6,37,0.00,,---,0.00,VWS V14.01,2013-07-22 12:30:00,
2013-07-22 05:35:00,66.0,39.7,29.82,SSW,202,4.0,4.0,38,0.00,,---,0.00,VWS V14.01,2013-07-22 12:35:00,
2013-07-22 05:40:00,66.4,39.3,29.82,WSW,248,1.1,1.1,37,0.00,,---,0.00,VWS V14.01,2013-07-22 12:40:00,
2013-07-22 05:45:00,66.6,39.5,29.82,West,270,1.3,1.3,37,0.00,,---,0.00,VWS V14.01,2013-07-22 12:45:00,
2013-07-22 05:50:00,66.7,39.7,29.82,East,90,2.0,2.0,37,0.00,,---,0.00,VWS V14.01,2013-07-22 12:50:00,
2013-07-22 05:55:00,67.6,40.5,29.82,West,270,0.0,0.0,37,0.00,,---,0.00,VWS V14.01,2013-07-22 12:55:00,
2013-07-22 06:00:00,67.8,40.6,29.79,WNW,292,2.0,2.0,37,0.00,,---,0.00,VWS V14.01,2013-07-22 13:00:00,
2013-07-22 06:05:00,67.8,39.9,29.79,WNW,292,0.9,0.9,36,0.00,,---,0.00,VWS V14.01,2013-07-22 13:05:00,
2013-07-22 06:10:00,68.0,39.3,29.79,WSW,248,3.1,3.1,35,0.00,,---,0.00,VWS V14.01,2013-07-22 13:10:00,
2013-07-22 06:15:00,68.0,39.3,29.82,NNE,22,1.6,1.6,35,0.00,,---,0.00,VWS V14.01,2013-07-22 13:15:00,
2013-07-22 06:20:00,68.2,39.5,29.82,SSE,158,1.6,1.6,35,0.00,,---,0.00,VWS V14.01,2013-07-22 13:20:00,
2013-07-22 06:25:00,68.4,39.7,29.82,NNW,338,2.2,2.2,35,0.00,,---,0.00,VWS V14.01,2013-07-22 13:25:00,
2013-07-22 06:30:00,68.5,39.8,29.82,WNW,292,1.1,1.1,35,0.00,,---,0.00,VWS V14.01,2013-07-22 13:30:00,
2013-07-22 06:35:00,68.9,40.2,29.82,West,270,2.0,2.0,35,0.00,,---,0.00,VWS V14.01,2013-07-22 13:35:00,
2013-07-22 06:40:00,68.9,40.2,29.82,SW,225,0.0,0.0,35,0.00,,---,0.00,VWS V14.01,2013-07-22 13:40:00,
2013-07-22 06:45:00,69.8,40.2,29.82,SSW,202,0.9,0.9,34,0.00,,---,0.00,VWS V14.01,2013-07-22 13:45:00,
2013-07-22 06:50:00,69.8,40.2,29.82,WSW,248,2.7,2.7,34,0.00,,---,0.00,VWS V14.01,2013-07-22 13:50:00,
2013-07-22 06:55:00,70.3,40.7,29.82,WSW,248,0.9,0.9,34,0.00,,---,0.00,VWS V14.01,2013-07-22 13:55:00,
2013-07-22 07:00:00,71.1,41.3,29.85,SW,225,0.0,0.0,34,0.00,,---,0.00,VWS V14.01,2013-07-22 14:00:00,
2013-07-22 07:05:00,72.0,41.3,29.85,West,270,1.1,1.1,33,0.00,,---,0.00,VWS V14.01,2013-07-22 14:05:00,
2013-07-22 07:10:00,73.0,42.3,29.85,South,180,1.6,1.6,33,0.00,,---,0.00,VWS V14.01,2013-07-22 14:10:00,
2013-07-22 07:15:00,73.0,42.3,29.85,SSW,202,2.7,2.7,33,0.00,,---,0.00,VWS V14.01,2013-07-22 14:15:00,
2013-07-22 07:20:00,74.3,42.6,29.85,SW,225,1.6,1.6,32,0.00,,---,0.00,VWS V14.01,2013-07-22 14:20:00,
2013-07-22 07:25:00,75.0,43.2,29.85,SW,225,3.1,3.1,32,0.00,,---,0.00,VWS V14.01,2013-07-22 14:25:00,
2013-07-22 07:30:00,75.0,42.4,29.85,WNW,292,2.9,2.9,31,0.00,,---,0.00,VWS V14.01,2013-07-22 14:30:00,
2013-07-22 07:35:00,75.4,42.7,29.85,WSW,248,3.4,3.4,31,0.00,,---,0.00,VWS V14.01,2013-07-22 14:35:00,
2013-07-22 07:40:00,76.8,43.9,29.85,West,270,0.0,0.0,31,0.00,,---,0.00,VWS V14.01,2013-07-22 14:40:00,
2013-07-22 07:45:00,77.0,43.2,29.85,WSW,248,0.0,0.0,30,0.00,,---,0.00,VWS V14.01,2013-07-22 14:45:00,
2013-07-22 07:50:00,77.4,43.5,29.85,SW,225,2.9,2.9,30,0.00,,---,0.00,VWS V14.01,2013-07-22 14:50:00,
2013-07-22 07:55:00,77.2,42.5,29.85,SW,225,2.7,2.7,29,0.00,,---,0.00,VWS V14.01,2013-07-22 14:55:00,
2013-07-22 08:00:00,78.3,43.4,29.85,SSW,202,2.2,2.2,29,0.00,,---,0.00,VWS V14.01,2013-07-22 15:00:00,
2013-07-22 08:05:00,78.3,43.4,29.85,SW,225,2.7,2.7,29,0.00,,---,0.00,VWS V14.01,2013-07-22 15:05:00,
2013-07-22 08:10:00,79.0,44.0,29.85,NW,315,1.1,1.1,29,0.00,,---,0.00,VWS V14.01,2013-07-22 15:10:00,
2013-07-22 08:15:00,79.9,44.8,29.85,WNW,292,0.0,0.0,29,0.00,,---,0.00,VWS V14.01,2013-07-22 15:15:00,
2013-07-22 08:20:00,81.1,45.0,29.85,WSW,248,2.5,2.5,28,0.00,,---,0.00,VWS V14.01,2013-07-22 15:20:00,
2013-07-22 08:25:00,82.0,45.8,29.85,SW,225,0.0,0.0,28,0.00,,---,0.00,VWS V14.01,2013-07-22 15:25:00,
2013-07-22 08:30:00,81.3,44.2,29.88,SW,225,2.9,2.9,27,0.00,,---,0.00,VWS V14.01,2013-07-22 15:30:00,
2013-07-22 08:35:00,82.9,45.6,29.88,West,270,0.9,0.9,27,0.00,,---,0.00,VWS V14.01,2013-07-22 15:35:00,
2013-07-22 08:40:00,82.9,45.6,29.88,SW,225,0.0,0.0,27,0.00,,---,0.00,VWS V14.01,2013-07-22 15:40:00,
2013-07-22 08:46:00,82.4,44.1,29.85,SW,225,2.5,2.5,26,0.00,,---,0.00,VWS V14.01,2013-07-22 15:46:00,
2013-07-22 08:51:00,82.0,44.8,29.85,SW,225,0.9,0.9,27,0.00,,---,0.00,VWS V14.01,2013-07-22 15:51:00,
2013-07-22 08:56:00,81.3,44.2,29.85,SE,135,2.9,2.9,27,0.00,,---,0.00,VWS V14.01,2013-07-22 15:56:00,
2013-07-22 09:01:00,80.8,43.7,29.88,SW,225,2.2,2.2,27,0.00,,---,0.00,VWS V14.01,2013-07-22 16:01:00,
2013-07-22 09:06:00,81.5,45.3,29.88,WSW,248,3.6,3.6,28,0.00,,---,0.00,VWS V14.01,2013-07-22 16:06:00,
2013-07-22 09:11:00,81.3,44.2,29.88,South,180,5.4,5.4,27,0.00,,---,0.00,VWS V14.01,2013-07-22 16:11:00,
2013-07-22 09:16:00,82.4,44.1,29.88,WSW,248,6.0,6.0,26,0.00,,---,0.00,VWS V14.01,2013-07-22 16:16:00,
2013-07-22 09:21:00,83.1,45.7,29.88,WSW,248,2.7,2.7,27,0.00,,---,0.00,VWS V14.01,2013-07-22 16:21:00,
2013-07-22 09:26:00,84.4,45.8,29.88,WSW,248,4.5,4.5,26,0.00,,---,0.00,VWS V14.01,2013-07-22 16:26:00,
2013-07-22 09:31:00,83.8,45.3,29.88,SSW,202,0.0,0.0,26,0.00,,---,0.00,VWS V14.01,2013-07-22 16:31:00,
2013-07-22 09:36:00,84.6,44.9,29.88,South,180,2.7,2.7,25,0.00,,---,0.00,VWS V14.01,2013-07-22 16:36:00,
2013-07-22 09:41:00,84.7,44.0,29.88,SW,225,4.9,4.9,24,0.00,,---,0.00,VWS V14.01,2013-07-22 16:41:00,
2013-07-22 09:46:00,84.2,43.5,29.85,SSW,202,2.9,2.9,24,0.00,,---,0.00,VWS V14.01,2013-07-22 16:46:00,
2013-07-22 09:51:00,85.6,44.7,29.85,South,180,2.9,2.9,24,0.00,,---,0.00,VWS V14.01,2013-07-22 16:51:00,
2013-07-22 09:56:00,84.9,44.1,29.85,WNW,292,0.9,0.9,24,0.00,,---,0.00,VWS V14.01,2013-07-22 16:56:00,
2013-07-22 10:01:00,86.5,44.4,29.88,SW,225,2.7,2.7,23,0.00,,---,0.00,VWS V14.01,2013-07-22 17:01:00,
2013-07-22 10:06:00,86.5,43.2,29.88,SW,225,2.5,2.5,22,0.00,,---,0.00,VWS V14.01,2013-07-22 17:06:00,
2013-07-22 10:11:00,86.7,42.2,29.88,WSW,248,0.9,0.9,21,0.00,,---,0.00,VWS V14.01,2013-07-22 17:11:00,
2013-07-22 10:16:00,88.2,43.3,29.85,SW,225,3.1,3.1,21,0.00,,---,0.00,VWS V14.01,2013-07-22 17:16:00,
2013-07-22 10:21:00,88.2,43.3,29.85,SW,225,1.3,1.3,21,0.00,,---,0.00,VWS V14.01,2013-07-22 17:21:00,
2013-07-22 10:26:00,88.2,42.1,29.85,SW,225,2.0,2.0,20,0.00,,---,0.00,VWS V14.01,2013-07-22 17:26:00,
2013-07-22 10:31:00,88.7,42.5,29.85,WSW,248,3.6,3.6,20,0.00,,---,0.00,VWS V14.01,2013-07-22 17:31:00,
2013-07-22 10:36:00,88.5,42.4,29.85,SW,225,3.6,3.6,20,0.00,,---,0.00,VWS V14.01,2013-07-22 17:36:00,
2013-07-22 10:41:00,88.9,42.7,29.85,SW,225,1.1,1.1,20,0.00,,---,0.00,VWS V14.01,2013-07-22 17:41:00,
2013-07-22 10:46:00,88.5,42.4,29.85,SW,225,1.1,1.1,20,0.00,,---,0.00,VWS V14.01,2013-07-22 17:46:00,
2013-07-22 10:51:00,87.8,41.8,29.85,SW,225,4.0,4.0,20,0.00,,---,0.00,VWS V14.01,2013-07-22 17:51:00,
2013-07-22 10:58:00,88.7,42.5,29.85,South,180,1.1,1.1,20,0.00,,---,0.00,VWS V14.01,2013-07-22 17:58:00,
2013-07-22 11:04:00,89.1,42.8,29.85,West,270,1.3,1.3,20,0.00,,---,0.00,VWS V14.01,2013-07-22 18:04:00,
2013-07-22 11:11:00,89.8,42.1,29.85,WSW,248,2.0,2.0,19,0.00,,---,0.00,VWS V14.01,2013-07-22 18:11:00,
2013-07-22 11:18:00,91.8,43.7,29.85,NW,315,1.6,1.6,19,0.00,,---,0.00,VWS V14.01,2013-07-22 18:18:00,
2013-07-22 11:23:00,93.0,44.7,29.85,NW,315,0.0,0.0,19,0.00,,---,0.00,VWS V14.01,2013-07-22 18:23:00,
2013-07-22 11:28:00,93.6,43.7,29.85,SW,225,2.0,2.0,18,0.00,,---,0.00,VWS V14.01,2013-07-22 18:28:00,
2013-07-22 11:33:00,92.8,43.2,29.85,SW,225,4.7,4.7,18,0.00,,---,0.00,VWS V14.01,2013-07-22 18:33:00,
2013-07-22 11:38:00,91.9,42.4,29.85,WSW,248,2.0,2.0,18,0.00,,---,0.00,VWS V14.01,2013-07-22 18:38:00,
2013-07-22 11:43:00,93.2,43.4,29.85,South,180,1.1,1.1,18,0.00,,---,0.00,VWS V14.01,2013-07-22 18:43:00,
2013-07-22 11:48:00,94.6,44.6,29.85,West,270,0.0,0.0,18,0.00,,---,0.00,VWS V14.01,2013-07-22 18:48:00,
2013-07-22 11:53:00,95.2,43.5,29.85,West,270,2.2,2.2,17,0.00,,---,0.00,VWS V14.01,2013-07-22 18:53:00,
2013-07-22 11:59:00,94.8,43.3,29.85,West,270,1.6,1.6,17,0.00,,---,0.00,VWS V14.01,2013-07-22 18:59:00,
2013-07-22 12:04:00,94.5,43.0,29.85,West,270,2.2,2.2,17,0.00,,---,0.00,VWS V14.01,2013-07-22 19:04:00,
2013-07-22 12:10:00,93.7,42.4,29.85,SW,225,2.7,2.7,17,0.00,,---,0.00,VWS V14.01,2013-07-22 19:10:00,
2013-07-22 12:15:00,94.1,42.7,29.82,SW,225,1.1,1.1,17,0.00,,---,0.00,VWS V14.01,2013-07-22 19:15:00,
2013-07-22 12:20:00,93.9,42.5,29.82,WNW,292,2.2,2.2,17,0.00,,---,0.00,VWS V14.01,2013-07-22 19:20:00,
2013-07-22 12:25:00,94.1,42.7,29.82,SW,225,3.1,3.1,17,0.00,,---,0.00,VWS V14.01,2013-07-22 19:25:00,
2013-07-22 12:30:00,92.5,41.4,29.85,WNW,292,0.0,0.0,17,0.00,,---,0.00,VWS V14.01,2013-07-22 19:30:00,
2013-07-22 12:36:00,93.7,42.4,29.85,SW,225,2.0,2.0,17,0.00,,---,0.00,VWS V14.01,2013-07-22 19:36:00,
2013-07-22 12:41:00,94.1,42.7,29.85,SW,225,3.1,3.1,17,0.00,,---,0.00,VWS V14.01,2013-07-22 19:41:00,
2013-07-22 12:46:00,94.8,43.3,29.82,West,270,1.6,1.6,17,0.00,,---,0.00,VWS V14.01,2013-07-22 19:46:00,
2013-07-22 12:52:00,95.4,43.7,29.82,NW,315,2.2,2.2,17,0.00,,---,0.00,VWS V14.01,2013-07-22 19:52:00,
2013-07-22 12:58:00,95.5,42.2,29.82,WSW,248,2.7,2.7,16,0.00,,---,0.00,VWS V14.01,2013-07-22 19:58:00,
2013-07-22 13:04:00,95.0,41.8,29.82,SW,225,2.0,2.0,16,0.00,,---,0.00,VWS V14.01,2013-07-22 20:04:00,
2013-07-22 13:10:00,95.4,42.1,29.82,WSW,248,0.9,0.9,16,0.00,,---,0.00,VWS V14.01,2013-07-22 20:10:00,
2013-07-22 13:16:00,95.4,42.1,29.82,East,90,3.4,3.4,16,0.00,,---,0.00,VWS V14.01,2013-07-22 20:16:00,
2013-07-22 13:17:00,96.4,43.0,29.82,SW,225,4.3,4.3,16,0.00,,---,0.00,VWS V14.01,2013-07-22 20:17:00,
2013-07-22 13:18:00,96.1,42.7,29.82,SW,225,4.3,4.3,16,0.00,,---,0.00,VWS V14.01,2013-07-22 20:18:00,
2013-07-22 13:19:00,95.0,41.8,29.82,SE,135,4.9,4.9,16,0.00,,---,0.00,VWS V14.01,2013-07-22 20:19:00,
2013-07-22 13:23:00,94.8,43.3,29.82,South,180,7.4,7.4,17,0.00,,---,0.00,VWS V14.01,2013-07-22 20:23:00,
2013-07-22 13:24:00,94.8,43.3,29.82,SW,225,6.3,6.3,17,0.00,,---,0.00,VWS V14.01,2013-07-22 20:24:00,
2013-07-22 13:29:00,94.1,42.7,29.79,WSW,248,3.1,3.1,17,0.00,,---,0.00,VWS V14.01,2013-07-22 20:29:00,
2013-07-22 13:34:00,94.1,42.7,29.79,SW,225,3.1,3.1,17,0.00,,---,0.00,VWS V14.01,2013-07-22 20:34:00,
2013-07-22 13:39:00,93.7,42.4,29.79,SW,225,8.1,8.1,17,0.00,,---,0.00,VWS V14.01,2013-07-22 20:39:00,
2013-07-22 13:44:00,94.3,42.8,29.82,SW,225,4.3,4.3,17,0.00,,---,0.00,VWS V14.01,2013-07-22 20:44:00,
2013-07-22 13:49:00,94.6,43.1,29.82,WSW,248,2.7,2.7,17,0.00,,---,0.00,VWS V14.01,2013-07-22 20:49:00,
2013-07-22 13:53:00,94.5,43.0,29.82,WSW,248,2.9,2.9,17,0.00,,---,0.00,VWS V14.01,2013-07-22 20:53:00,
2013-07-22 13:58:00,95.0,41.8,29.82,SSE,158,2.0,2.0,16,0.00,,---,0.00,VWS V14.01,2013-07-22 20:58:00,
2013-07-22 14:03:00,95.5,42.2,29.79,SW,225,4.7,4.7,16,0.00,,---,0.00,VWS V14.01,2013-07-22 21:03:00,
2013-07-22 14:08:00,96.8,43.3,29.79,WNW,292,1.1,1.1,16,0.00,,---,0.00,VWS V14.01,2013-07-22 21:08:00,
2013-07-22 14:13:00,96.3,42.8,29.79,SSW,202,2.2,2.2,16,0.00,,---,0.00,VWS V14.01,2013-07-22 21:13:00,
2013-07-22 14:18:00,97.0,43.4,29.82,SW,225,5.4,5.4,16,0.00,,---,0.00,VWS V14.01,2013-07-22 21:18:00,
2013-07-22 14:23:00,97.7,44.0,29.82,WNW,292,1.1,1.1,16,0.00,,---,0.00,VWS V14.01,2013-07-22 21:23:00,
2013-07-22 14:28:00,97.9,44.1,29.82,SW,225,1.6,1.6,16,0.00,,---,0.00,VWS V14.01,2013-07-22 21:28:00,
2013-07-22 14:33:00,97.2,43.5,29.82,West,270,0.0,0.0,16,0.00,,---,0.00,VWS V14.01,2013-07-22 21:33:00,
2013-07-22 14:38:00,97.9,44.1,29.82,South,180,2.9,2.9,16,0.00,,---,0.00,VWS V14.01,2013-07-22 21:38:00,
2013-07-22 14:43:00,96.8,43.3,29.82,SW,225,4.0,4.0,16,0.00,,---,0.00,VWS V14.01,2013-07-22 21:43:00,
2013-07-22 14:48:00,97.9,44.1,29.85,SSW,202,4.5,4.5,16,0.00,,---,0.00,VWS V14.01,2013-07-22 21:48:00,
2013-07-22 14:53:00,97.3,43.7,29.85,West,270,1.1,1.1,16,0.00,,---,0.00,VWS V14.01,2013-07-22 21:53:00,
2013-07-22 14:58:00,97.9,38.8,29.85,SW,225,2.5,2.5,13,0.00,,---,0.00,VWS V14.01,2013-07-22 21:58:00,
2013-07-22 15:03:00,97.0,43.4,29.82,West,270,2.2,2.2,16,0.00,,---,0.00,VWS V14.01,2013-07-22 22:03:00,
2013-07-22 15:08:00,97.7,44.0,29.82,NW,315,1.6,1.6,16,0.00,,---,0.00,VWS V14.01,2013-07-22 22:08:00,
2013-07-22 15:13:00,98.1,44.3,29.82,WNW,292,1.1,1.1,16,0.00,,---,0.00,VWS V14.01,2013-07-22 22:13:00,
2013-07-22 15:18:00,97.5,43.8,29.82,West,270,2.0,2.0,16,0.00,,---,0.00,VWS V14.01,2013-07-22 22:18:00,
2013-07-22 15:23:00,96.6,39.7,29.82,WSW,248,2.9,2.9,14,0.00,,---,0.00,VWS V14.01,2013-07-22 22:23:00,
2013-07-22 15:28:00,97.2,43.5,29.82,WNW,292,1.1,1.1,16,0.00,,---,0.00,VWS V14.01,2013-07-22 22:28:00,
2013-07-22 15:33:00,96.1,39.2,29.82,WSW,248,2.2,2.2,14,0.00,,---,0.00,VWS V14.01,2013-07-22 22:33:00,
2013-07-22 15:38:00,97.9,44.1,29.82,NW,315,1.1,1.1,16,0.00,,---,0.00,VWS V14.01,2013-07-22 22:38:00,
2013-07-22 15:43:00,98.4,39.2,29.82,WSW,248,2.7,2.7,13,0.00,,---,0.00,VWS V14.01,2013-07-22 22:43:00,
2013-07-22 15:48:00,98.4,39.2,29.79,NW,315,2.0,2.0,13,0.00,,---,0.00,VWS V14.01,2013-07-22 22:48:00,
2013-07-22 15:53:00,98.4,39.2,29.79,NW,315,7.2,7.2,13,0.00,,---,0.00,VWS V14.01,2013-07-22 22:53:00,
2013-07-22 15:58:00,97.9,38.8,29.79,WSW,248,2.9,2.9,13,0.00,,---,0.00,VWS V14.01,2013-07-22 22:58:00,
2013-07-22 16:03:00,97.2,38.2,29.79,WSW,248,2.5,2.5,13,0.00,,---,0.00,VWS V14.01,2013-07-22 23:03:00,
2013-07-22 16:08:00,98.4,39.2,29.79,West,270,0.0,0.0,13,0.00,,---,0.00,VWS V14.01,2013-07-22 23:08:00,
2013-07-22 16:13:00,97.9,38.8,29.79,South,180,8.1,8.1,13,0.00,,---,0.00,VWS V14.01,2013-07-22 23:13:00,
2013-07-22 16:18:00,96.8,37.9,29.79,West,270,3.4,3.4,13,0.00,,---,0.00,VWS V14.01,2013-07-22 23:18:00,
2013-07-22 16:24:00,96.8,37.9,29.79,NW,315,0.0,0.0,13,0.00,,---,0.00,VWS V14.01,2013-07-22 23:24:00,
2013-07-22 16:29:00,97.0,38.0,29.79,WNW,292,2.7,2.7,13,0.00,,---,0.00,VWS V14.01,2013-07-22 23:29:00,
2013-07-22 16:34:00,97.2,38.2,29.76,WNW,292,2.7,2.7,13,0.00,,---,0.00,VWS V14.01,2013-07-22 23:34:00,
2013-07-22 16:39:00,97.2,38.2,29.76,WSW,248,2.0,2.0,13,0.00,,---,0.00,VWS V14.01,2013-07-22 23:39:00,
2013-07-22 16:44:00,97.2,38.2,29.76,SW,225,3.4,3.4,13,0.00,,---,0.00,VWS V14.01,2013-07-22 23:44:00,
2013-07-22 16:49:00,97.2,38.2,29.76,SE,135,2.9,2.9,13,0.00,,---,0.00,VWS V14.01,2013-07-22 23:49:00,
2013-07-22 16:54:00,96.3,39.4,29.76,SW,225,1.3,1.3,14,0.00,,---,0.00,VWS V14.01,2013-07-22 23:54:00,
2013-07-22 16:59:00,96.3,39.4,29.76,West,270,0.0,0.0,14,0.00,,---,0.00,VWS V14.01,2013-07-22 23:59:00,
2013-07-22 17:04:00,96.3,39.4,29.76,West,270,1.3,1.3,14,0.00,,---,0.00,VWS V14.01,2013-07-23 00:04:00,
2013-07-22 17:09:00,96.3,39.4,29.76,SW,225,3.8,3.8,14,0.00,,---,0.00,VWS V14.01,2013-07-23 00:09:00,
2013-07-22 17:14:00,97.2,38.2,29.76,West,270,2.2,2.2,13,0.00,,---,0.00,VWS V14.01,2013-07-23 00:14:00,
2013-07-22 17:19:00,96.8,37.9,29.76,West,270,1.3,1.3,13,0.00,,---,0.00,VWS V14.01,2013-07-23 00:19:00,
2013-07-22 17:24:00,96.8,37.9,29.76,West,270,1.1,1.1,13,0.00,,---,0.00,VWS V14.01,2013-07-23 00:24:00,
2013-07-22 17:29:00,96.8,37.9,29.74,West,270,1.6,1.6,13,0.00,,---,0.00,VWS V14.01,2013-07-23 00:29:00,
2013-07-22 17:34:00,95.4,38.7,29.74,SW,225,2.0,2.0,14,0.00,,---,0.00,VWS V14.01,2013-07-23 00:34:00,
2013-07-22 17:39:00,95.4,38.7,29.74,SW,225,5.8,5.8,14,0.00,,---,0.00,VWS V14.01,2013-07-23 00:39:00,
2013-07-22 17:44:00,95.4,38.7,29.74,NW,315,2.0,2.0,14,0.00,,---,0.00,VWS V14.01,2013-07-23 00:44:00,
2013-07-22 17:49:00,95.4,38.7,29.74,WSW,248,1.3,1.3,14,0.00,,---,0.00,VWS V14.01,2013-07-23 00:49:00,
2013-07-22 17:54:00,95.4,38.7,29.74,SW,225,3.1,3.1,14,0.00,,---,0.00,VWS V14.01,2013-07-23 00:54:00,
2013-07-22 17:59:00,95.4,38.7,29.76,WSW,248,1.1,1.1,14,0.00,,---,0.00,VWS V14.01,2013-07-23 00:59:00,
2013-07-22 18:04:00,95.4,38.7,29.76,NW,315,1.6,1.6,14,0.00,,---,0.00,VWS V14.01,2013-07-23 01:04:00,
2013-07-22 18:09:00,95.4,38.7,29.76,SW,225,2.2,2.2,14,0.00,,---,0.00,VWS V14.01,2013-07-23 01:09:00,
2013-07-22 18:14:00,95.4,38.7,29.79,SW,225,4.9,4.9,14,0.00,,---,0.00,VWS V14.01,2013-07-23 01:14:00,
2013-07-22 18:19:00,95.4,38.7,29.79,WSW,248,2.2,2.2,14,0.00,,---,0.00,VWS V14.01,2013-07-23 01:19:00,
2013-07-22 18:24:00,95.4,38.7,29.79,WSW,248,0.0,0.0,14,0.00,,---,0.00,VWS V14.01,2013-07-23 01:24:00,
2013-07-22 18:29:00,95.4,38.7,29.76,WSW,248,0.0,0.0,14,0.00,,---,0.00,VWS V14.01,2013-07-23 01:29:00,
2013-07-22 18:34:00,95.4,38.7,29.76,West,270,1.1,1.1,14,0.00,,---,0.00,VWS V14.01,2013-07-23 01:34:00,
2013-07-22 18:39:00,95.4,38.7,29.76,South,180,5.4,5.4,14,0.00,,---,0.00,VWS V14.01,2013-07-23 01:39:00,
2013-07-22 18:44:00,95.4,38.7,29.76,SW,225,4.3,4.3,14,0.00,,---,0.00,VWS V14.01,2013-07-23 01:44:00,
2013-07-22 18:49:00,95.4,38.7,29.76,WSW,248,2.2,2.2,14,0.00,,---,0.00,VWS V14.01,2013-07-23 01:49:00,
2013-07-22 18:54:00,95.4,38.7,29.76,SW,225,3.6,3.6,14,0.00,,---,0.00,VWS V14.01,2013-07-23 01:54:00,
2013-07-22 18:59:00,95.4,38.7,29.76,SW,225,3.4,3.4,14,0.00,,---,0.00,VWS V14.01,2013-07-23 01:59:00,
2013-07-22 19:04:00,95.4,38.7,29.76,South,180,4.9,4.9,14,0.00,,---,0.00,VWS V14.01,2013-07-23 02:04:00,
2013-07-22 19:09:00,95.4,38.7,29.76,WSW,248,4.0,4.0,14,0.00,,---,0.00,VWS V14.01,2013-07-23 02:09:00,
2013-07-22 19:14:00,95.4,38.7,29.76,SSW,202,0.9,0.9,14,0.00,,---,0.00,VWS V14.01,2013-07-23 02:14:00,
2013-07-22 19:19:00,95.4,38.7,29.76,WSW,248,2.0,2.0,14,0.00,,---,0.00,VWS V14.01,2013-07-23 02:19:00,
2013-07-22 19:24:00,95.4,38.7,29.76,SW,225,2.5,2.5,14,0.00,,---,0.00,VWS V14.01,2013-07-23 02:24:00,
2013-07-22 19:29:00,95.4,38.7,29.76,WSW,248,1.1,1.1,14,0.00,,---,0.00,VWS V14.01,2013-07-23 02:29:00,
2013-07-22 19:34:00,95.4,38.7,29.76,WSW,248,0.9,0.9,14,0.00,,---,0.00,VWS V14.01,2013-07-23 02:34:00,
2013-07-22 19:39:00,95.4,38.7,29.76,WSW,248,1.6,1.6,14,0.00,,---,0.00,VWS V14.01,2013-07-23 02:39:00,
2013-07-22 19:44:00,95.4,38.7,29.76,WNW,292,1.1,1.1,14,0.00,,---,0.00,VWS V14.01,2013-07-23 02:44:00,
2013-07-22 19:49:00,95.4,38.7,29.76,WSW,248,2.9,2.9,14,0.00,,---,0.00,VWS V14.01,2013-07-23 02:49:00,
2013-07-22 19:54:00,95.4,38.7,29.76,WSW,248,0.0,0.0,14,0.00,,---,0.00,VWS V14.01,2013-07-23 02:54:00,
2013-07-22 20:00:00,95.4,38.7,29.74,SW,225,2.5,2.5,14,0.00,,---,0.00,VWS V14.01,2013-07-23 03:00:00,
2013-07-22 20:05:00,95.4,38.7,29.74,SW,225,0.9,0.9,14,0.00,,---,0.00,VWS V14.01,2013-07-23 03:05:00,
2013-07-22 20:10:00,95.4,38.7,29.74,SW,225,1.3,1.3,14,0.00,,---,0.00,VWS V14.01,2013-07-23 03:10:00,
2013-07-22 20:15:00,95.4,38.7,29.74,SW,225,1.3,1.3,14,0.00,,---,0.00,VWS V14.01,2013-07-23 03:15:00,
2013-07-22 20:20:00,95.4,38.7,29.74,SW,225,1.1,1.1,14,0.00,,---,0.00,VWS V14.01,2013-07-23 03:20:00,
2013-07-22 20:25:00,95.4,38.7,29.74,SW,225,0.0,0.0,14,0.00,,---,0.00,VWS V14.01,2013-07-23 03:25:00,
2013-07-22 20:30:00,95.4,38.7,29.76,SW,225,1.3,1.3,14,0.00,,---,0.00,VWS V14.01,2013-07-23 03:30:00,
2013-07-22 20:35:00,95.4,38.7,29.76,SW,225,2.5,2.5,14,0.00,,---,0.00,VWS V14.01,2013-07-23 03:35:00,
2013-07-22 20:40:00,82.4,31.8,29.76,SW,225,1.3,1.3,16,0.00,,---,0.00,VWS V14.01,2013-07-23 03:40:00,
2013-07-22 20:45:00,82.4,31.8,29.76,SW,225,1.1,1.1,16,0.00,,---,0.00,VWS V14.01,2013-07-23 03:45:00,
2013-07-22 20:50:00,82.4,31.8,29.76,SW,225,1.1,1.1,16,0.00,,---,0.00,VWS V14.01,2013-07-23 03:50:00,
2013-07-22 20:55:00,82.4,31.8,29.76,SW,225,1.1,1.1,16,0.00,,---,0.00,VWS V14.01,2013-07-23 03:55:00,
2013-07-22 21:00:00,82.4,31.8,29.79,SW,225,0.0,0.0,16,0.00,,---,0.00,VWS V14.01,2013-07-23 04:00:00,
2013-07-22 21:01:00,82.4,31.8,29.79,SW,225,0.0,0.0,16,0.00,,---,0.00,VWS V14.01,2013-07-23 04:01:00,
2013-07-22 21:02:00,82.4,31.8,29.79,SSW,202,1.3,1.3,16,0.00,,---,0.00,VWS V14.01,2013-07-23 04:02:00,
2013-07-22 21:03:00,82.4,31.8,29.79,SSW,202,0.0,0.0,16,0.00,,---,0.00,VWS V14.01,2013-07-23 04:03:00,
2013-07-22 21:04:00,82.4,31.8,29.79,SSW,202,1.3,1.3,16,0.00,,---,0.00,VWS V14.01,2013-07-23 04:04:00,
2013-07-22 21:09:00,82.4,31.8,29.79,SW,225,0.0,0.0,16,0.00,,---,0.00,VWS V14.01,2013-07-23 04:09:00,
2013-07-22 21:14:00,82.4,31.8,29.79,SW,225,0.0,0.0,16,0.00,,---,0.00,VWS V14.01,2013-07-23 04:14:00,
2013-07-22 21:19:00,78.8,30.4,29.79,SW,225,0.0,0.0,17,0.00,,---,0.00,VWS V14.01,2013-07-23 04:19:00,
2013-07-22 21:24:00,77.9,31.0,29.79,SW,225,0.0,0.0,18,0.00,,---,0.00,VWS V14.01,2013-07-23 04:24:00,
2013-07-22 21:29:00,77.5,30.7,29.82,SW,225,2.0,2.0,18,0.00,,---,0.00,VWS V14.01,2013-07-23 04:29:00,
2013-07-22 21:34:00,77.4,30.6,29.82,SW,225,1.1,1.1,18,0.00,,---,0.00,VWS V14.01,2013-07-23 04:34:00,
2013-07-22 21:39:00,77.0,30.3,29.82,SW,225,0.0,0.0,18,0.00,,---,0.00,VWS V14.01,2013-07-23 04:39:00,
2013-07-22 21:44:00,76.6,30.0,29.82,SW,225,0.0,0.0,18,0.00,,---,0.00,VWS V14.01,2013-07-23 04:44:00,
2013-07-22 21:49:00,76.1,29.6,29.82,SW,225,0.0,0.0,18,0.00,,---,0.00,VWS V14.01,2013-07-23 04:49:00,
2013-07-22 21:54:00,75.7,31.9,29.82,SSW,202,0.0,0.0,20,0.00,,---,0.00,VWS V14.01,2013-07-23 04:54:00,
2013-07-22 21:59:00,75.6,31.7,29.82,SSW,202,0.0,0.0,20,0.00,,---,0.00,VWS V14.01,2013-07-23 04:59:00,
2013-07-22 22:04:00,75.2,31.4,29.82,SW,225,0.0,0.0,20,0.00,,---,0.00,VWS V14.01,2013-07-23 05:04:00,
2013-07-22 22:09:00,74.8,32.3,29.82,SW,225,0.0,0.0,21,0.00,,---,0.00,VWS V14.01,2013-07-23 05:09:00,
2013-07-22 22:14:00,74.5,32.0,29.79,SW,225,0.0,0.0,21,0.00,,---,0.00,VWS V14.01,2013-07-23 05:14:00,
2013-07-22 22:19:00,74.1,31.7,29.79,SW,225,0.0,0.0,21,0.00,,---,0.00,VWS V14.01,2013-07-23 05:19:00,
2013-07-22 22:24:00,73.9,31.6,29.79,SW,225,0.0,0.0,21,0.00,,---,0.00,VWS V14.01,2013-07-23 05:24:00,
2013-07-22 22:29:00,73.6,31.3,29.82,SW,225,0.0,0.0,21,0.00,,---,0.00,VWS V14.01,2013-07-23 05:29:00,
2013-07-22 22:34:00,73.2,32.1,29.82,SSW,202,0.0,0.0,22,0.00,,---,0.00,VWS V14.01,2013-07-23 05:34:00,
2013-07-22 22:39:00,73.0,32.0,29.82,South,180,1.6,1.6,22,0.00,,---,0.00,VWS V14.01,2013-07-23 05:39:00,
2013-07-22 22:44:00,73.0,32.0,29.82,South,180,0.0,0.0,22,0.00,,---,0.00,VWS V14.01,2013-07-23 05:44:00,
2013-07-22 22:49:00,72.7,31.7,29.82,SW,225,0.0,0.0,22,0.00,,---,0.00,VWS V14.01,2013-07-23 05:49:00,
2013-07-22 22:54:00,72.1,31.2,29.82,WNW,292,0.0,0.0,22,0.00,,---,0.00,VWS V14.01,2013-07-23 05:54:00,
2013-07-22 22:59:00,72.0,31.1,29.82,SE,135,0.0,0.0,22,0.00,,---,0.00,VWS V14.01,2013-07-23 05:59:00,
2013-07-22 23:04:00,72.0,31.1,29.82,ESE,112,1.6,1.6,22,0.00,,---,0.00,VWS V14.01,2013-07-23 06:04:00,
2013-07-22 23:09:00,71.8,30.9,29.82,ESE,112,1.3,1.3,22,0.00,,---,0.00,VWS V14.01,2013-07-23 06:09:00,
2013-07-22 23:14:00,71.8,32.0,29.85,NNE,22,0.0,0.0,23,0.00,,---,0.00,VWS V14.01,2013-07-23 06:14:00,
2013-07-22 23:19:00,71.4,31.7,29.85,NNW,338,0.0,0.0,23,0.00,,---,0.00,VWS V14.01,2013-07-23 06:19:00,
2013-07-22 23:24:00,71.8,32.0,29.85,ENE,68,1.6,1.6,23,0.00,,---,0.00,VWS V14.01,2013-07-23 06:24:00,
2013-07-22 23:30:00,71.6,31.9,29.85,South,180,2.5,2.5,23,0.00,,---,0.00,VWS V14.01,2013-07-23 06:30:00,
2013-07-22 23:35:00,71.4,32.8,29.85,South,180,0.0,0.0,24,0.00,,---,0.00,VWS V14.01,2013-07-23 06:35:00,
2013-07-22 23:40:00,70.9,32.3,29.85,South,180,1.6,1.6,24,0.00,,---,0.00,VWS V14.01,2013-07-23 06:40:00,
2013-07-22 23:45:00,70.7,33.2,29.85,NW,315,1.3,1.3,25,0.00,,---,0.00,VWS V14.01,2013-07-23 06:45:00,
2013-07-22 23:50:00,70.5,33.0,29.85,SSW,202,1.3,1.3,25,0.00,,---,0.00,VWS V14.01,2013-07-23 06:50:00,
2013-07-22 23:55:00,70.3,32.9,29.85,South,180,0.0,0.0,25,0.00,,---,0.00,VWS V14.01,2013-07-23 06:55:00,